Baker, MT

1:29 AM MDT on September 28, 2016 (GMT -0600)
Baker Municipal

Weather History for KBHK - June, 2013

Change the Weather History Date:

Thursday, June 13, 2013

  Actual Average Record
Temperature  
Mean Temperature 64 °F -  
Max Temperature 73 °F 66 °F 84 °F (2012)
Min Temperature 55 °F 58 °F 43 °F (2002)
Degree Days  
Heating Degree Days 1    
Growing Degree Days 14 (Base 50)    
Moisture  
Dew Point 52 °F    
Average Humidity 63    
Maximum Humidity 81    
Minimum Humidity 49    
Precipitation  
Precipitation 0.00 in - - ()
Sea Level Pressure  
Sea Level Pressure 29.91 in    
Wind  
Wind Speed 20 mph (SE)    
Max Wind Speed 37 mph    
Max Gust Speed 46 mph    
Visibility 10 miles    
Events Rain , Thunderstorm    
Averages and records for this station are not official NWS values.
T = Trace of Precipitation, MM = Missing Value Source: NWS Daily Summary

Daily Weather History Graph

Daily Weather History Graph

Search for Another Location

Airport or City:

Trip Planner

Search our weather history database for the weather conditions in past years. The results will help you decide how hot, cold, wet, or windy it might be!

Date:

Astronomy

Jun. 13, 2013 Rise Set
Actual Time 5:04 AM MDT 8:50 PM MDT
Civil Twilight 4:25 AM MDT 9:29 PM MDT
Nautical Twilight 3:32 AM MDT 10:21 PM MDT
Astronomical Twilight 2:18 AM MDT 11:36 PM MDT
Moon 9:57 AM MDT (6/13) 11:42 PM MDT (6/13)
Length of Visible Light 17h 03m
Length of Day
15h 46m
Waxing Crescent, 22% of the Moon is Illuminated
Jun 13
Waxing Crescent
Jun 16
First Quarter
Jun 23
Full
Jun 29
Last Quarter
Jul 8
New

Hourly Weather History & Observations

Time (MDT) Temp. Dew Point Humidity Pressure Visibility Wind Dir Wind Speed Gust Speed Precip Events Conditions
12:51 AM 60.1 °F 51.1 °F 72% 30.04 in 10.0 mi East 12.7 mph - N/A   Clear
1:51 AM 57.9 °F 50.0 °F 75% 30.06 in 10.0 mi ESE 15.0 mph - N/A   Clear
2:51 AM 57.9 °F 50.0 °F 75% 30.06 in 10.0 mi ESE 13.8 mph - N/A   Clear
3:51 AM 57.0 °F 51.1 °F 81% 30.04 in 10.0 mi SE 18.4 mph - N/A   Clear
4:51 AM 55.9 °F 50.0 °F 80% 30.03 in 10.0 mi ESE 19.6 mph - N/A   Partly Cloudy
5:51 AM 55.9 °F 50.0 °F 80% 30.01 in 10.0 mi SE 23.0 mph 31.1 mph N/A   Clear
6:51 AM 59.0 °F 48.9 °F 69% 29.97 in 10.0 mi SE 36.8 mph 46.0 mph N/A   Clear
7:51 AM 62.1 °F 50.0 °F 65% 29.96 in 10.0 mi SE 32.2 mph 46.0 mph N/A   Clear
8:51 AM 63.0 °F 48.9 °F 60% 29.98 in 10.0 mi SSE 31.1 mph 41.4 mph N/A   Clear
9:51 AM 66.9 °F 50.0 °F 54% 29.96 in 10.0 mi SSE 33.4 mph 42.6 mph N/A   Clear
10:51 AM 69.1 °F 50.0 °F 51% 29.92 in 10.0 mi SSE 33.4 mph 41.4 mph N/A   Clear
11:51 AM 71.1 °F 51.1 °F 49% 29.92 in 10.0 mi SSE 26.5 mph 39.1 mph N/A   Clear
12:51 PM 68.0 °F 50.0 °F 52% 29.90 in 10.0 mi SE 27.6 mph 40.3 mph N/A   Clear
1:51 PM 72.0 °F 52.0 °F 49% 29.87 in 10.0 mi SE 29.9 mph 40.3 mph N/A   Clear
2:51 PM 71.1 °F 52.0 °F 51% 29.86 in 10.0 mi SSE 21.9 mph 33.4 mph N/A   Clear
3:51 PM 73.9 °F 55.0 °F 52% 29.89 in 10.0 mi SSE 20.7 mph 29.9 mph N/A   Partly Cloudy
4:51 PM 72.0 °F 54.0 °F 53% 29.86 in 10.0 mi SE 15.0 mph 24.2 mph N/A   Clear
5:49 PM 69.8 °F 53.6 °F 56% 29.93 in 10.0 mi SSE 15.0 mph - N/A Thunderstorm Mostly Cloudy
5:51 PM 70.0 °F 53.1 °F 55% 29.89 in 10.0 mi SSE 15.0 mph - N/A Thunderstorm Mostly Cloudy
6:04 PM 68.0 °F 55.4 °F 64% 29.94 in 10.0 mi SSE 10.4 mph - 0.00 in Rain Light Rain
6:51 PM 66.9 °F 55.0 °F 66% 29.81 in 10.0 mi SE 27.6 mph 31.1 mph 0.00 in Rain Light Rain
7:51 PM 66.9 °F 54.0 °F 63% 29.77 in 10.0 mi SE 21.9 mph 31.1 mph 0.00 in   Clear
8:51 PM 64.0 °F 52.0 °F 65% 29.78 in 10.0 mi SE 20.7 mph 27.6 mph N/A   Clear
9:51 PM 63.0 °F 51.1 °F 65% 29.77 in 10.0 mi SE 17.3 mph 27.6 mph N/A   Clear
10:51 PM 62.1 °F 52.0 °F 70% 29.87 in 10.0 mi West 24.2 mph 31.1 mph N/A   Clear
11:21 PM 64.4 °F 51.8 °F 64% 29.91 in 10.0 mi West 11.5 mph 17.3 mph N/A Thunderstorm Scattered Clouds
11:44 PM 64.4 °F 51.8 °F 64% 29.84 in 10.0 mi ESE 15.0 mph - 0.00 in Rain Light Rain
11:51 PM 63.0 °F 52.0 °F 67% 29.78 in 10.0 mi East 15.0 mph - 0.00 in   Mostly Cloudy